sat.trackr.live / text

‹ back to catalog

STARLINK-30091

NORAD 57463 · 2023-107G

PAYLOAD ACTIVE UNKNOWN

§ Identity

Operator
Country
US
Launch date
2023-07-28
Launch site
AFETR
Launch vehicle
Mass (kg)
RCS (m²)

Purposes: comms

External: N2YO · Heavens-Above · Gunter

§ Orbital elements

Epoch: 2026-06-20T05:19:38.333280Z

Period
88.61 min
Inclination
42.9869°
Eccentricity
0.0014028
Mean motion
16.25092031 rev/d
Perigee alt
196.5 km
Apogee alt
215.0 km
Semi-major
6,583.9 km
B*
4.0127e-3
RAAN
104.2391°
Arg perigee
183.5909°
Mean anomaly
176.4880°
Rev number
16,094

§ Raw data

STARLINK-300911 57463U 23107G   26171.22197145  .12654868  87976-5  40127-2 0  99942 57463  42.9869 104.2391 0014028 183.5909 176.4880 16.25092031160948

JSON: /api/v1/satellites/57463 · /tle

For live sub-satellite position, see the globe view (requires WebGL).

§ Visibility from observer

Set your observer location to see the next 7 days of passes ≥ 10°. The values pass through the URL so the page stays shareable.

No JS? Fill the form by hand. The geolocation button needs JavaScript.